GW1622 Weather Reports


Display with metric or nautical units.
time (UTC)temp
F
wind
direction
speed
MPH
gust
MPH
rain 1hr
in
rain 24hr
in
rain mn
in
humidity
%
barometer
mb
20260905191017 76 0 0.0 3.0 0.00 0.00 0.00 71 1014.7
20260905190524 75 0 0.0 5.0 0.00 0.00 0.00 75 1014.7
20260905190057 73 0 0.0 6.0 0.00 0.00 0.00 77 1014.7
20260905185517 73 29 2.0 8.0 0.00 0.00 0.00 76 1014.9
20260905185018 73 0 0.0 8.0 0.00 0.00 0.00 75 1014.9
20260905184558 73 352 1.0 8.0 0.00 0.00 0.00 75 1014.9
20260905184021 73 22 1.0 8.0 0.00 0.00 0.00 75 1014.9
20260905183520 73 13 2.0 5.0 0.00 0.00 0.00 74 1014.7
20260905183042 73 0 2.0 5.0 0.00 0.00 0.00 75 1014.7
20260905182517 73 281 1.0 6.0 0.00 0.00 0.00 73 1014.8
20260905182018 73 21 1.0 6.0 0.00 0.00 0.00 71 1014.8
20260905181540 74 36 1.0 7.0 0.00 0.00 0.00 71 1014.8
20260905181017 74 57 3.0 7.0 0.00 0.00 0.00 71 1014.9
20260905180518 73 46 0.0 5.0 0.00 0.00 0.00 71 1014.9
20260905180038 73 19 2.0 5.0 0.00 0.00 0.00 71 1014.9
20260905175518 73 0 1.0 5.0 0.00 0.00 0.00 73 1014.7
20260905175020 73 5 1.0 5.0 0.00 0.00 0.00 72 1014.7
20260905174545 73 34 1.0 5.0 0.00 0.00 0.00 72 1014.7
20260905174018 73 0 1.0 5.0 0.00 0.00 0.00 71 1014.6
20260905173519 73 38 0.0 3.0 0.00 0.00 0.00 70 1014.6
20260905173040 73 0 0.0 4.0 0.00 0.00 0.00 73 1014.6
20260905172520 73 184 1.0 4.0 0.00 0.00 0.00 71 1014.7
20260905172020 72 0 1.0 4.0 0.00 0.00 0.00 72 1014.6
20260905171540 72 0 0.0 4.0 0.00 0.00 0.00 74 1014.7
20260905171019 72 63 1.0 5.0 0.00 0.00 0.00 74 1014.6
20260905170518 72 346 2.0 5.0 0.00 0.00 0.00 74 1014.5
20260905170040 72 0 1.0 4.0 0.00 0.00 0.00 74 1014.4
20260905165518 72 0 0.0 4.0 0.00 0.00 0.00 73 1014.4
20260905165017 72 0 0.0 4.0 0.00 0.00 0.00 71 1014.4
20260905164541 72 11 0.0 4.0 0.00 0.00 0.00 71 1014.6
20260905164018 71 348 2.0 6.0 0.00 0.00 0.00 70 1014.7
20260905163520 71 5 2.0 6.0 0.00 0.00 0.00 69 1014.6
20260905163041 71 0 0.0 2.0 0.00 0.00 0.00 71 1014.5
20260905162519 71 0 0.0 2.0 0.00 0.00 0.00 71 1014.7
20260905162017 71 0 0.0 3.0 0.00 0.00 0.00 72 1014.5
20260905161538 70 0 0.0 3.0 0.00 0.00 0.00 73 1014.5
20260905161018 70 352 0.0 3.0 0.00 0.00 0.00 73 1014.6
20260905160518 69 0 0.0 0.0 0.00 0.00 0.00 74 1014.4
20260905160040 69 0 0.0 0.0 0.00 0.00 0.00 76 1014.4
20260905155520 69 0 0.0 0.0 0.00 0.00 0.00 79 1014.5
20260905155017 68 0 0.0 0.0 0.00 0.00 0.00 80 1014.5
20260905154540 68 0 0.0 0.0 0.00 0.00 0.00 81 1014.6
20260905154020 68 0 0.0 0.0 0.00 0.00 0.00 82 1014.7
20260905153521 67 0 0.0 0.0 0.00 0.00 0.00 84 1014.6
20260905153040 67 0 0.0 0.0 0.00 0.00 0.00 87 1014.5
20260905152517 66 0 0.0 0.0 0.00 0.00 0.00 90 1014.5
20260905152020 65 0 0.0 0.0 0.00 0.00 0.00 90 1014.5
20260905151543 64 0 0.0 0.0 0.00 0.00 0.00 92 1014.4
20260905151023 63 0 0.0 0.0 0.00 0.00 0.00 92 1014.5
20260905150519 62 0 0.0 0.0 0.00 0.00 0.00 92 1014.3
20260905150040 62 0 0.0 0.0 0.00 0.00 0.00 93 1014.3
20260905145518 62 0 0.0 0.0 0.00 0.00 0.00 93 1014.3
20260905145020 62 0 0.0 0.0 0.00 0.00 0.00 93 1014.2
20260905144544 61 0 0.0 0.0 0.00 0.00 0.00 93 1014.0
20260905144017 62 0 0.0 0.0 0.00 0.00 0.00 93 1014.1
20260905143517 62 0 0.0 0.0 0.00 0.00 0.00 93 1013.9
20260905143040 61 0 0.0 0.0 0.00 0.00 0.00 93 1013.9
20260905142518 61 0 0.0 0.0 0.00 0.00 0.00 93 1013.9
20260905142020 61 0 0.0 0.0 0.00 0.00 0.00 93 1013.8
20260905141543 61 0 0.0 0.0 0.00 0.00 0.00 93 1013.8
20260905141021 61 0 0.0 0.0 0.00 0.00 0.00 93 1013.8
20260905140519 61 0 0.0 0.0 0.00 0.00 0.00 93 1013.8
20260905140040 61 0 0.0 0.0 0.00 0.00 0.00 93 1013.7
20260905135517 62 0 0.0 0.0 0.00 0.00 0.00 93 1013.6
20260905135022 61 0 0.0 0.0 0.00 0.00 0.00 93 1013.6
20260905134538 61 0 0.0 0.0 0.00 0.00 0.00 93 1013.6
20260905134021 61 0 0.0 0.0 0.00 0.00 0.00 93 1013.5
20260905133516 61 0 0.0 0.0 0.00 0.00 0.00 93 1013.6
20260905133042 61 0 0.0 0.0 0.00 0.00 0.00 93 1013.4
20260905132518 61 0 0.0 0.0 0.00 0.00 0.00 93 1013.4
20260905132021 60 0 0.0 0.0 0.00 0.00 0.00 93 1013.4
20260905131556 60 0 0.0 0.0 0.00 0.00 0.00 93 1013.3
20260905131017 60 0 0.0 0.0 0.00 0.00 0.00 93 1013.2
20260905130521 60 0 0.0 0.0 0.00 0.00 0.00 93 1013.3
20260905130044 60 0 0.0 0.0 0.00 0.00 0.00 93 1013.3
20260905125516 60 0 0.0 0.0 0.00 0.00 0.00 93 1013.1
20260905125022 60 0 0.0 0.0 0.00 0.00 0.00 93 1013.3
20260905124549 60 0 0.0 0.0 0.00 0.00 0.00 93 1013.2
20260905124019 60 0 0.0 0.0 0.00 0.00 0.00 93 1013.3
20260905123519 60 0 0.0 0.0 0.00 0.00 0.00 93 1013.2
20260905123053 60 0 0.0 0.0 0.00 0.00 0.00 93 1013.1
20260905122519 60 0 0.0 0.0 0.00 0.00 0.00 93 1013.2
20260905122020 61 0 0.0 0.0 0.00 0.00 0.00 93 1013.3
20260905121540 61 0 0.0 0.0 0.00 0.00 0.00 93 1013.3
20260905121021 61 0 0.0 0.0 0.00 0.00 0.00 93 1013.3
20260905120522 61 0 0.0 0.0 0.00 0.00 0.00 93 1013.3
20260905120038 61 0 0.0 0.0 0.00 0.00 0.00 93 1013.3
20260905115521 61 0 0.0 0.0 0.00 0.00 0.00 93 1013.4
20260905115020 61 0 0.0 0.0 0.00 0.00 0.00 93 1013.3
20260905114543 61 0 0.0 0.0 0.00 0.00 0.00 93 1013.3
20260905114019 61 0 0.0 0.0 0.00 0.00 0.00 93 1013.3
20260905113518 61 0 0.0 0.0 0.00 0.00 0.00 93 1013.3
20260905113043 61 0 0.0 0.0 0.00 0.00 0.00 93 1013.2
20260905112520 61 0 0.0 0.0 0.00 0.00 0.00 92 1013.3
20260905112019 61 0 0.0 0.0 0.00 0.00 0.00 92 1013.3
20260905111550 61 0 0.0 0.0 0.00 0.00 0.00 92 1013.3
20260905111020 62 0 0.0 0.0 0.00 0.00 0.00 92 1013.4
20260905110517 62 0 0.0 0.0 0.00 0.00 0.00 92 1013.4
20260905110038 62 0 0.0 0.0 0.00 0.00 0.00 92 1013.4
20260905105520 62 0 0.0 0.0 0.00 0.00 0.00 92 1013.4
20260905105021 62 0 0.0 0.0 0.00 0.00 0.00 92 1013.5
20260905104537 62 0 0.0 0.0 0.00 0.00 0.00 92 1013.5
20260905104018 61 0 0.0 0.0 0.00 0.00 0.00 92 1013.5
20260905103525 62 0 0.0 0.0 0.00 0.00 0.00 92 1013.4
20260905103041 62 0 0.0 0.0 0.00 0.00 0.00 92 1013.5
20260905102517 62 0 0.0 0.0 0.00 0.00 0.00 92 1013.5
20260905102017 62 0 0.0 0.0 0.00 0.00 0.00 92 1013.5
20260905101542 62 0 0.0 0.0 0.00 0.00 0.00 92 1013.5
20260905101018 62 0 0.0 0.0 0.00 0.00 0.00 92 1013.5
20260905100520 62 0 0.0 0.0 0.00 0.00 0.00 92 1013.5
20260905100042 62 0 0.0 0.0 0.00 0.00 0.00 92 1013.5
20260905095517 62 0 0.0 0.0 0.00 0.00 0.00 92 1013.5
20260905095017 62 0 0.0 0.0 0.00 0.00 0.00 92 1013.5
20260905094542 62 0 0.0 0.0 0.00 0.00 0.00 92 1013.4
20260905094021 62 0 0.0 0.0 0.00 0.00 0.00 92 1013.6
20260905093520 62 0 0.0 0.0 0.00 0.00 0.00 92 1013.5
20260905093042 62 0 0.0 0.0 0.00 0.00 0.00 92 1013.5
20260905092516 62 0 0.0 0.0 0.00 0.00 0.00 92 1013.5
20260905092022 62 0 0.0 0.0 0.00 0.00 0.00 92 1013.6
20260905091538 63 0 0.0 0.0 0.00 0.00 0.00 92 1013.6
20260905091021 62 0 0.0 0.0 0.00 0.00 0.00 92 1013.5
20260905090524 62 0 0.0 0.0 0.00 0.00 0.00 92 1013.7
20260905090041 62 0 0.0 0.0 0.00 0.00 0.00 92 1013.6
20260905085521 62 0 0.0 0.0 0.00 0.00 0.00 92 1013.5
20260905085019 62 0 0.0 0.0 0.00 0.00 0.00 92 1013.6
20260905084559 62 0 0.0 0.0 0.00 0.00 0.00 92 1013.7
20260905084020 63 0 0.0 0.0 0.00 0.00 0.00 92 1013.7
20260905083518 62 0 0.0 0.0 0.00 0.00 0.00 92 1013.8
20260905083039 62 0 0.0 0.0 0.00 0.00 0.00 92 1014.1
20260905082521 62 0 0.0 0.0 0.00 0.00 0.00 92 1014.1
20260905082019 62 0 0.0 0.0 0.00 0.00 0.00 92 1014.1
20260905081541 62 0 0.0 0.0 0.00 0.00 0.00 92 1014.1
20260905081020 62 0 0.0 0.0 0.00 0.00 0.00 91 1014.1
20260905080521 63 0 0.0 0.0 0.00 0.00 0.00 92 1014.2
20260905080041 63 0 0.0 0.0 0.00 0.00 0.00 91 1014.2
20260905075520 63 0 0.0 0.0 0.00 0.00 0.00 91 1014.3
20260905075019 62 0 0.0 0.0 0.00 0.00 0.00 91 1014.3
20260905074540 63 0 0.0 0.0 0.00 0.00 0.00 91 1014.4
20260905074019 63 0 0.0 0.0 0.00 0.00 0.00 91 1014.4
20260905073521 63 0 0.0 0.0 0.00 0.00 0.00 91 1014.4
20260905073037 63 0 0.0 0.0 0.00 0.00 0.00 91 1014.3
20260905072521 63 0 0.0 0.0 0.00 0.00 0.00 91 1014.3
20260905072020 63 0 0.0 0.0 0.00 0.00 0.00 90 1014.3
20260905071538 63 0 0.0 0.0 0.00 0.00 0.00 90 1014.2
20260905071017 63 0 0.0 0.0 0.00 0.00 0.00 90 1014.3
20260905070517 64 0 0.0 0.0 0.00 0.00 0.00 90 1014.3
20260905070042 64 0 0.0 0.0 0.00 0.00 0.00 90 1014.3
20260905065517 64 0 0.0 0.0 0.00 0.00 0.00 90 1014.3
20260905065018 64 0 0.0 0.0 0.00 0.00 0.00 90 1014.3
20260905064540 64 0 0.0 0.0 0.00 0.00 0.00 90 1014.3
20260905064016 64 0 0.0 0.0 0.00 0.00 0.00 90 1014.4
20260905063522 64 0 0.0 0.0 0.00 0.00 0.00 90 1014.4
20260905063039 64 0 0.0 0.0 0.00 0.00 0.00 90 1014.4
20260905062522 64 0 0.0 0.0 0.00 0.00 0.00 90 1014.4
20260905062018 64 0 0.0 0.0 0.00 0.00 0.00 90 1014.4
20260905061539 64 0 0.0 0.0 0.00 0.00 0.00 90 1014.3
20260905061022 64 0 0.0 0.0 0.00 0.00 0.00 90 1014.4
20260905060521 64 0 0.0 0.0 0.00 0.00 0.00 89 1014.4
20260905060041 64 0 0.0 0.0 0.00 0.00 0.00 89 1014.3
20260905055523 65 0 0.0 0.0 0.00 0.00 0.00 89 1014.2
20260905055021 64 0 0.0 0.0 0.00 0.00 0.00 89 1014.2
20260905054540 65 0 0.0 0.0 0.00 0.00 0.00 89 1014.2
20260905054019 65 0 0.0 0.0 0.00 0.00 0.00 89 1014.2
20260905053519 65 0 0.0 0.0 0.00 0.00 0.00 89 1014.1
20260905053036 65 0 0.0 0.0 0.00 0.00 0.00 88 1014.1
20260905052527 65 0 0.0 0.0 0.00 0.00 0.00 88 1013.9
20260905052018 65 0 0.0 0.0 0.00 0.00 0.00 89 1014.0
20260905051540 65 0 0.0 0.0 0.00 0.00 0.00 88 1014.0
20260905051019 65 0 0.0 0.0 0.00 0.00 0.00 88 1014.1
20260905050518 65 0 0.0 0.0 0.00 0.00 0.00 88 1014.1
20260905050041 65 0 0.0 0.0 0.00 0.00 0.00 88 1014.1
20260905045521 65 0 0.0 0.0 0.00 0.00 0.00 88 1014.2
20260905045022 65 0 0.0 0.0 0.00 0.00 0.00 88 1014.2
20260905044540 65 0 0.0 1.0 0.00 0.00 0.00 88 1014.0
20260905044021 65 0 0.0 1.0 0.00 0.00 0.00 88 1014.0
20260905043518 65 0 0.0 1.0 0.00 0.00 0.00 88 1014.0
20260905043038 65 0 0.0 0.0 0.00 0.00 0.00 88 1013.9
20260905042520 65 0 0.0 0.0 0.00 0.00 0.00 88 1013.8
20260905042020 65 0 0.0 0.0 0.00 0.00 0.00 87 1013.8
20260905041537 66 0 0.0 0.0 0.00 0.00 0.00 87 1013.8
20260905041017 66 0 0.0 0.0 0.00 0.00 0.00 88 1013.7
20260905040517 65 0 0.0 0.0 0.00 0.00 0.00 87 1013.7
20260905040044 65 0 0.0 0.0 0.00 0.00 0.00 87 1013.7
20260905035519 65 0 0.0 0.0 0.00 0.00 0.00 87 1013.6
20260905035020 65 0 0.0 0.0 0.00 0.00 0.00 87 1013.6
20260905034546 65 0 0.0 0.0 0.00 0.00 0.00 87 1013.6
20260905034016 66 0 0.0 0.0 0.00 0.00 0.00 87 1013.7
20260905033520 66 0 0.0 0.0 0.00 0.00 0.00 87 1013.6
20260905033036 66 0 0.0 0.0 0.00 0.00 0.00 86 1013.5
20260905032520 66 0 0.0 0.0 0.00 0.00 0.00 86 1013.4
20260905032018 66 0 0.0 0.0 0.00 0.00 0.00 86 1013.4
20260905031538 66 0 0.0 0.0 0.00 0.00 0.00 86 1013.2
20260905031020 66 0 0.0 0.0 0.00 0.00 0.00 86 1013.3
20260905030519 66 0 0.0 0.0 0.00 0.00 0.00 85 1013.3
20260905030041 66 0 0.0 0.0 0.00 0.00 0.00 85 1013.3
20260905025517 66 0 0.0 0.0 0.00 0.00 0.00 85 1013.1
20260905025020 66 0 0.0 0.0 0.00 0.00 0.00 85 1013.1
20260905024551 67 0 0.0 0.0 0.00 0.00 0.00 84 1013.1
20260905024021 67 0 0.0 0.0 0.00 0.00 0.00 84 1013.0
20260905023520 67 0 0.0 1.0 0.00 0.00 0.00 84 1013.0
20260905023043 67 0 0.0 1.0 0.00 0.00 0.00 83 1012.9
20260905022521 67 0 0.0 1.0 0.00 0.00 0.00 83 1013.0
20260905022021 67 121 0.0 1.0 0.00 0.00 0.00 83 1013.0
20260905021542 67 0 0.0 0.0 0.00 0.00 0.00 82 1013.1
20260905021018 67 0 0.0 0.0 0.00 0.00 0.00 82 1013.1
20260905020520 67 0 0.0 1.0 0.00 0.00 0.00 82 1013.0
20260905020048 68 0 0.0 1.0 0.00 0.00 0.00 82 1013.2
20260905015517 68 0 0.0 1.0 0.00 0.00 0.00 82 1013.1
20260905015019 68 0 0.0 1.0 0.00 0.00 0.00 81 1013.1
20260905014539 68 0 0.0 2.0 0.00 0.00 0.00 81 1013.0
20260905014019 68 0 0.0 2.0 0.00 0.00 0.00 81 1013.0
20260905013517 68 290 0.0 2.0 0.00 0.00 0.00 81 1013.0
20260905013036 68 0 0.0 5.0 0.00 0.00 0.00 80 1012.9
20260905012520 69 0 0.0 5.0 0.00 0.00 0.00 80 1013.0
20260905012019 69 5 2.0 5.0 0.00 0.00 0.00 80 1012.9
20260905011541 69 0 0.0 3.0 0.00 0.00 0.00 80 1013.0
20260905011020 69 352 1.0 3.0 0.00 0.00 0.00 80 1013.0
20260905010516 69 234 0.0 3.0 0.00 0.00 0.00 80 1013.0
20260905010041 69 0 1.0 3.0 0.00 0.00 0.00 79 1013.1
20260905005521 69 338 0.0 3.0 0.00 0.00 0.00 79 1013.1
20260905005019 69 0 0.0 4.0 0.00 0.00 0.00 79 1013.1
20260905004549 69 0 2.0 5.0 0.00 0.00 0.00 78 1013.2
20260905004020 70 40 1.0 6.0 0.00 0.00 0.00 78 1013.1
20260905003518 70 28 1.0 6.0 0.00 0.00 0.00 78 1013.2
20260905003035 70 81 1.0 5.0 0.00 0.00 0.00 77 1013.2
20260905002521 70 348 2.0 5.0 0.00 0.00 0.00 76 1013.1
20260905002020 71 5 0.0 6.0 0.00 0.00 0.00 77 1013.0
20260905001540 71 307 1.0 6.0 0.00 0.00 0.00 77 1013.0
20260905001018 71 53 1.0 5.0 0.00 0.00 0.00 76 1013.0
20260905000516 71 325 2.0 5.0 0.00 0.00 0.00 76 1012.9
20260905000039 71 57 1.0 5.0 0.00 0.00 0.00 76 1013.0
20260904235521 71 96 2.0 5.0 0.00 0.00 0.00 76 1013.0
20260904235023 71 123 0.0 5.0 0.00 0.00 0.00 76 1013.0
20260904234557 71 150 1.0 5.0 0.00 0.00 0.00 75 1013.2
20260904234024 71 5 2.0 7.0 0.00 0.00 0.00 75 1013.1
20260904233517 71 168 2.0 7.0 0.00 0.00 0.00 75 1013.1
20260904233052 72 327 2.0 7.0 0.00 0.00 0.00 73 1013.1
20260904232518 72 0 2.0 8.0 0.00 0.00 0.00 73 1013.1
20260904232018 73 42 1.0 8.0 0.00 0.00 0.00 73 1013.2
20260904231541 73 71 2.0 7.0 0.00 0.00 0.00 72 1013.2
20260904231021 73 224 1.0 5.0 0.00 0.00 0.00 72 1013.2
20260904230517 73 112 2.0 5.0 0.00 0.00 0.00 72 1013.3
20260904230040 73 258 2.0 5.0 0.00 0.00 0.00 72 1013.2
20260904225523 72 52 2.0 7.0 0.00 0.00 0.00 72 1013.3
20260904225020 73 15 2.0 7.0 0.00 0.00 0.00 72 1013.4
20260904224545 73 302 2.0 9.0 0.00 0.00 0.00 72 1013.5
20260904224018 73 290 3.0 9.0 0.00 0.00 0.00 71 1013.5
20260904223518 73 41 3.0 7.0 0.00 0.00 0.00 72 1013.5
20260904223041 74 0 2.0 7.0 0.00 0.00 0.00 70 1013.6
20260904222519 74 265 3.0 7.0 0.00 0.00 0.00 70 1013.6
20260904222021 74 17 2.0 6.0 0.00 0.00 0.00 70 1013.6
20260904221544 74 27 2.0 10.0 0.00 0.00 0.00 70 1013.6
20260904221019 74 59 1.0 10.0 0.00 0.00 0.00 70 1013.7
20260904220522 74 46 2.0 10.0 0.00 0.00 0.00 68 1013.8
20260904220038 75 101 1.0 6.0 0.00 0.00 0.00 68 1013.7
20260904215521 75 61 2.0 6.0 0.00 0.00 0.00 68 1013.8
20260904215017 75 84 1.0 6.0 0.00 0.00 0.00 69 1013.6
20260904214543 75 85 2.0 6.0 0.00 0.00 0.00 68 1013.6
20260904214024 74 109 1.0 6.0 0.00 0.00 0.00 68 1013.5
20260904213521 75 248 2.0 7.0 0.00 0.00 0.00 68 1013.6
20260904213037 74 50 2.0 7.0 0.00 0.00 0.00 70 1013.6
20260904212520 75 50 2.0 7.0 0.00 0.00 0.00 67 1013.6
20260904212023 76 166 2.0 7.0 0.00 0.00 0.00 65 1013.6
20260904211539 76 5 2.0 7.0 0.00 0.00 0.00 66 1013.6
20260904211017 76 84 2.0 9.0 0.00 0.00 0.00 67 1013.6
20260904210516 76 56 2.0 9.0 0.00 0.00 0.00 66 1013.8
20260904210042 77 77 2.0 9.0 0.00 0.00 0.00 64 1013.8
20260904205518 76 0 1.0 5.0 0.00 0.00 0.00 67 1013.9
20260904205020 77 136 1.0 6.0 0.00 0.00 0.00 65 1013.9
20260904204535 77 42 2.0 6.0 0.00 0.00 0.00 65 1014.0
20260904204017 76 0 1.0 8.0 0.00 0.00 0.00 66 1013.9
20260904203520 75 45 2.0 8.0 0.00 0.00 0.00 68 1013.9
20260904203040 75 123 2.0 8.0 0.00 0.00 0.00 67 1013.9
20260904202523 74 60 3.0 8.0 0.00 0.00 0.00 67 1014.1
20260904202020 76 346 2.0 7.0 0.00 0.00 0.00 64 1014.2
20260904201541 76 279 1.0 7.0 0.00 0.00 0.00 66 1014.1
20260904201017 76 343 2.0 5.0 0.00 0.00 0.00 66 1014.2
20260904200519 76 85 2.0 6.0 0.00 0.00 0.00 66 1014.2
20260904200049 76 138 2.0 6.0 0.00 0.00 0.00 67 1014.2
20260904195518 76 175 2.0 6.0 0.00 0.00 0.00 67 1014.3
20260904195018 77 68 1.0 5.0 0.00 0.00 0.00 65 1014.3
20260904194542 75 0 2.0 6.0 0.00 0.00 0.00 68 1014.3
20260904194019 76 48 2.0 6.0 0.00 0.00 0.00 67 1014.3
20260904193521 74 64 2.0 6.0 0.00 0.00 0.00 68 1014.3
20260904193046 74 59 2.0 8.0 0.00 0.00 0.00 69 1014.3
20260904192521 74 200 1.0 8.0 0.00 0.00 0.00 69 1014.2
20260904192017 75 110 1.0 7.0 0.00 0.00 0.00 68 1014.5
20260904191537 75 35 2.0 7.0 0.00 0.00 0.00 68 1014.4